STARLINK-1726, 46362

Orbit data source: Space-Track

STARLINK-1726, 46362 is a payload satellite owned by SpaceX/Seattle (US) in LEO that was launched on Thu, 03 Sep 2020 UTC via an FALCON 9 launch vehicle from the Air Force Eastern Test Range (AFETR). Payload-class satellites include a variety of spacecraft equipped with specific instruments for various scientific and technological missions. These include communications satellites like Starlink; space stations such as the ISS; scientific satellites like the Hubble; Earth observation satellites from companies like Planet Labs, Umbra, and HawkEye 360; GPS; miniature CubeSats for education and research; and military/defense satellites.

Loading next visibility...
Identifier
46362, 2020-062AP
Orbit
LEO
Country
Flag of USUS
Related business
Manufacturer
SpaceX/Seattle
Mission
Partially operational Commercial Communications
Bus & Motor
STARLINK, Unknown motor
Mass
260 kg wet, ~248 kg dry
Launch date (UTC)
2020-09-03 (5 years ago)
Launch vehicle
FALCON 9
Launch site
Air Force Eastern Test Range (AFETR)
Object type
Payload
Rocket body
Debris
Shape & HBR
Box + 1 Pan, 10.1 m
Radar Cross Section
13.562 m², Large (>1 m²)

Expand to show TLE details & history
Last TLE update: 9 hours ago

TLE from 9 hours ago
0 STARLINK-1726
1 46362U 20062AP  26034.66668981  .00238301  00000-0  17935-2 0  9990
2 46362  53.0429  71.6134 0007981  13.2716 178.6504 15.71260371  5956
Epoch: 2026-02-03T16:00Z
TLE epoch observation values (Epoch: 2026-02-03T16:00:01.999Z)
Latitude
-9.64092°
Longitude
-114.93772°
Altitude
363.319 km
Speed
7.689 km/s
True Right ascension
17h 15m 39s
True Declination
-9° 34' 52"
Sunlit
Object was in daylight at epoch
Visualization orbit readout
Latitude
Unknown
Longitude
Unknown
Altitude
Unknown
Speed
Unknown
Apparent Right ascension
Unknown
Apparent Declination
Unknown
Sunlit
N/A
Visualization observer readout
Local Sidereal Time
03:12:32
Azimuth
Unknown
Elevation
Unknown
Doppler factor
Unknown
Orbital elements
Apogee altitude
360.948 km
Perigee altitude
350.2 km
Semi-major axis
6,733.711 km
Eccentricity
0.0008
Inclination
53.0429°
RAAN
71.6134°
Arg. of periapsis
13.2716°
True anomaly
178.65255°
Mean anomaly
178.6504°
Eccentric anomaly
178.65148°
Mean motion
3.92791 °/min
Orbital period
91.65 mins
BSTAR
0.0017935
Loading maneuver chart data...
Computing Atmospheric mass density...
Loading historical data...
Loading historical data...
Loading historical data...
Loading historical data...
Loading historical data...
Loading historical data...
Loading historical data...

Documentation

Showing up to 5 results
|